EW5855 Weather Reports


Display with metric or nautical units.
time (UTC)temp
F
wind
direction
speed
MPH
gust
MPH
rain 1hr
in
rain 24hr
in
rain mn
in
humidity
%
barometer
mb
20260905080516 55 0.0 0.0 0.00 0.00 0.00 99 1011.1
20260905075531 56 0.0 0.0 0.00 0.00 0.00 99 1011.1
20260905074608 56 0.0 0.0 0.00 0.00 0.00 99 1010.9
20260905073604 56 0.0 0.0 0.00 0.00 0.00 99 1011.0
20260905072520 56 0.0 0.0 0.00 0.00 0.00 99 1011.0
20260905071536 56 220 2.0 2.0 0.00 0.00 0.00 99 1011.2
20260905070533 56 218 1.0 2.0 0.00 0.00 0.00 99 1011.3
20260905065528 56 236 1.0 2.0 0.00 0.00 0.00 99 1011.5
20260905064525 56 0.0 0.0 0.00 0.00 0.00 99 1011.4
20260905063521 57 218 0.0 1.0 0.00 0.00 0.00 99 1011.4
20260905062517 57 192 1.0 2.0 0.00 0.00 0.00 99 1011.5
20260905061533 57 204 2.0 3.0 0.00 0.00 0.00 99 1011.5
20260905060529 57 205 2.0 3.0 0.00 0.00 0.00 99 1011.6
20260905055525 58 225 1.0 2.0 0.00 0.00 0.00 99 1011.5
20260905054521 58 228 1.0 2.0 0.00 0.00 0.00 99 1011.6
20260905053537 58 181 0.0 1.0 0.00 0.00 0.00 99 1011.6
20260905052533 58 240 1.0 1.0 0.00 0.00 0.00 99 1011.6
20260905051529 59 227 0.0 1.0 0.00 0.00 0.00 99 1011.5
20260905050525 59 0.0 0.0 0.00 0.00 0.00 99 1011.5
20260905045518 60 205 1.0 2.0 0.00 0.00 0.00 99 1011.5
20260905044534 60 206 1.0 2.0 0.00 0.00 0.00 99 1011.6
20260905043549 60 215 1.0 2.0 0.00 0.00 0.00 99 1011.8
20260905042525 61 230 1.0 1.0 0.00 0.00 0.00 99 1011.9
20260905041521 61 0.0 0.0 0.00 0.00 0.00 99 1012.1
20260905040516 62 217 0.0 1.0 0.00 0.00 0.00 99 1011.9
20260905035532 62 218 2.0 3.0 0.00 0.00 0.00 99 1011.8
20260905034528 63 213 2.0 3.0 0.00 0.00 0.00 99 1011.7
20260905033523 63 216 2.0 3.0 0.00 0.00 0.00 99 1011.8
20260905032539 63 226 1.0 2.0 0.00 0.00 0.00 99 1011.8
20260905031535 64 210 0.0 1.0 0.00 0.00 0.00 99 1011.7
20260905030531 64 203 1.0 1.0 0.00 0.00 0.00 98 1011.7
20260905025527 65 211 2.0 3.0 0.00 0.00 0.00 98 1011.7
20260905024543 65 189 1.0 2.0 0.00 0.00 0.00 97 1011.9
20260905023519 65 219 0.0 1.0 0.00 0.00 0.00 97 1011.7
20260905022515 66 179 0.0 1.0 0.00 0.00 0.00 97 1011.7
20260905021551 66 184 0.0 1.0 0.00 0.00 0.00 96 1011.9
20260905020528 66 197 1.0 2.0 0.00 0.00 0.00 96 1011.9
20260905015524 67 199 0.0 1.0 0.00 0.00 0.00 94 1011.7
20260905014520 67 0.0 0.0 0.00 0.00 0.00 92 1011.9
20260905013517 68 134 0.0 1.0 0.00 0.00 0.00 88 1011.9
20260905012533 68 40 0.0 2.0 0.00 0.00 0.00 87 1012.0
20260905011529 67 255 0.0 2.0 0.00 0.00 0.00 91 1012.0
20260905010525 67 54 0.0 1.0 0.00 0.00 0.00 93 1011.8
20260905005601 66 127 0.0 1.0 0.00 0.00 0.00 97 1011.8
20260905004517 66 50 2.0 4.0 0.00 0.00 0.00 98 1011.8
20260905003533 66 0.0 0.0 0.00 0.00 0.00 98 1011.6
20260905002529 66 0.0 0.0 0.00 0.00 0.00 97 1011.5
20260905001525 67 202 1.0 2.0 0.00 0.00 0.00 96 1011.5
20260905000520 67 204 1.0 2.0 0.00 0.00 0.00 97 1011.5
20260904235536 67 211 1.0 2.0 0.00 0.00 0.00 96 1011.3
20260904234532 68 211 1.0 3.0 0.00 0.00 0.00 95 1011.3
20260904233529 68 0.0 0.0 0.00 0.00 0.00 94 1011.0
20260904232545 69 0.0 0.0 0.00 0.00 0.00 93 1011.0
20260904231521 70 0.0 0.0 0.00 0.00 0.00 91 1011.0
20260904230518 70 0.0 0.0 0.00 0.00 0.00 90 1010.9
20260904225534 71 0.0 0.0 0.00 0.00 0.00 87 1010.9
20260904224530 72 0.0 0.0 0.00 0.00 0.00 83 1011.0
20260904223526 73 0.0 0.0 0.00 0.00 0.00 81 1010.9
20260904222522 73 0.0 0.0 0.00 0.00 0.00 83 1010.9
20260904221518 72 0.0 0.0 0.00 0.00 0.00 82 1010.8
20260904220534 74 0.0 0.0 0.00 0.00 0.00 81 1010.8
20260904215530 74 0.0 0.0 0.00 0.00 0.00 79 1010.7
20260904214526 74 0.0 0.0 0.00 0.00 0.00 78 1010.9
20260904213542 75 258 0.0 2.0 0.00 0.00 0.00 77 1010.7
20260904212539 75 345 2.0 8.0 0.00 0.00 0.00 71 1010.8
20260904211555 76 273 1.0 3.0 0.00 0.00 0.00 73 1010.9
20260904210530 76 51 1.0 2.0 0.00 0.00 0.00 72 1011.0
20260904205526 76 42 2.0 4.0 0.00 0.00 0.00 71 1010.9
20260904204522 76 38 1.0 3.0 0.00 0.00 0.00 71 1010.9
20260904203518 77 6 2.0 4.0 0.00 0.00 0.00 69 1010.9
20260904202535 78 13 2.0 3.0 0.00 0.00 0.00 69 1010.9
20260904201551 77 296 2.0 6.0 0.00 0.00 0.00 70 1010.9
20260904200528 77 41 3.0 8.0 0.00 0.00 0.00 70 1011.0
20260904195524 79 357 3.0 8.0 0.00 0.00 0.00 65 1010.9
20260904194539 79 302 3.0 6.0 0.00 0.00 0.00 62 1010.8
20260904193538 78 7 2.0 4.0 0.00 0.00 0.00 65 1010.8
20260904192531 79 15 1.0 4.0 0.00 0.00 0.00 65 1010.9
20260904191527 79 343 1.0 4.0 0.00 0.00 0.00 63 1011.1
20260904190523 78 283 3.0 6.0 0.00 0.00 0.00 65 1011.1
20260904185520 78 322 3.0 6.0 0.00 0.00 0.00 64 1011.1
20260904184516 79 297 2.0 7.0 0.00 0.00 0.00 63 1011.2
20260904183532 79 291 4.0 8.0 0.00 0.00 0.00 62 1011.2
20260904182527 79 268 3.0 9.0 0.00 0.00 0.00 63 1011.2
20260904181523 78 25 2.0 3.0 0.00 0.00 0.00 65 1011.2
20260904180518 78 61 3.0 7.0 0.00 0.00 0.00 67 1011.2
20260904175556 76 48 2.0 3.0 0.00 0.00 0.00 69 1011.4
20260904174531 77 334 1.0 2.0 0.00 0.00 0.00 68 1011.4
20260904173527 77 65 2.0 6.0 0.00 0.00 0.00 65 1011.3
20260904172543 77 33 2.0 7.0 0.00 0.00 0.00 68 1011.3
20260904171539 77 48 3.0 7.0 0.00 0.00 0.00 69 1011.3
20260904170535 78 55 5.0 8.0 0.00 0.00 0.00 68 1011.2
20260904165531 77 48 4.0 7.0 0.00 0.00 0.00 68 1011.4
20260904164526 78 359 3.0 8.0 0.00 0.00 0.00 66 1011.5
20260904163522 78 285 3.0 7.0 0.00 0.00 0.00 68 1011.6
20260904162517 78 59 1.0 6.0 0.00 0.00 0.00 68 1011.7
20260904161534 76 238 3.0 6.0 0.00 0.00 0.00 71 1011.8
20260904160611 77 269 3.0 9.0 0.00 0.00 0.00 72 1012.0
20260904155526 74 297 3.0 6.0 0.00 0.00 0.00 75 1012.3
20260904154522 76 310 3.0 7.0 0.00 0.00 0.00 71 1012.1
20260904153518 75 40 3.0 8.0 0.00 0.00 0.00 72 1012.4
20260904152614 74 295 2.0 6.0 0.00 0.00 0.00 77 1012.5
20260904151531 75 85 2.0 6.0 0.00 0.00 0.00 75 1012.5
20260904150527 74 76 1.0 4.0 0.00 0.00 0.00 79 1012.4
20260904145523 75 298 1.0 3.0 0.00 0.00 0.00 75 1012.5
20260904144539 77 201 1.0 3.0 0.00 0.00 0.00 77 1012.3
20260904143555 74 253 1.0 3.0 0.00 0.00 0.00 81 1012.3
20260904142527 73 204 0.0 2.0 0.00 0.00 0.00 83 1012.3
20260904141523 73 66 2.0 4.0 0.00 0.00 0.00 83 1012.3
20260904140519 73 85 2.0 4.0 0.00 0.00 0.00 83 1012.3
20260904135534 74 109 1.0 3.0 0.00 0.00 0.00 81 1012.4
20260904134531 73 217 0.0 2.0 0.00 0.00 0.00 82 1012.4
20260904133526 73 161 0.0 2.0 0.00 0.00 0.00 82 1012.2
20260904132524 71 216 1.0 2.0 0.00 0.00 0.00 86 1012.3
20260904131520 72 204 1.0 2.0 0.00 0.00 0.00 85 1012.3
20260904130516 73 207 0.0 1.0 0.00 0.00 0.00 85 1012.5
20260904125532 69 200 0.0 1.0 0.00 0.00 0.00 91 1012.4
20260904124528 68 193 0.0 1.0 0.00 0.00 0.00 92 1012.5
20260904123523 66 0.0 0.0 0.00 0.00 0.00 98 1012.8
20260904122519 63 214 1.0 1.0 0.00 0.00 0.00 99 1012.7
20260904121515 61 187 1.0 2.0 0.00 0.00 0.00 99 1012.7
20260904120532 60 186 1.0 2.0 0.00 0.00 0.00 99 1012.7
20260904115528 59 0.0 0.0 0.00 0.00 0.00 99 1012.7
20260904114524 57 0.0 0.0 0.00 0.00 0.00 99 1012.6
20260904113601 56 0.0 0.0 0.00 0.00 0.00 99 1012.7
20260904112516 56 0.0 0.0 0.00 0.00 0.00 99 1012.5
20260904111532 56 0.0 0.0 0.00 0.00 0.00 99 1012.3
20260904110529 56 0.0 0.0 0.00 0.00 0.00 99 1012.3
20260904105524 56 0.0 0.0 0.00 0.00 0.00 99 1012.2
20260904104541 55 0.0 0.0 0.00 0.00 0.00 99 1011.9
20260904103516 55 0.0 0.0 0.00 0.00 0.00 99 1011.8
20260904102553 55 0.0 0.0 0.00 0.00 0.00 99 1011.8
20260904101530 56 0.0 0.0 0.00 0.00 0.00 99 1011.8
20260904100526 56 0.0 0.0 0.00 0.00 0.00 99 1011.7
20260904095522 56 0.0 0.0 0.00 0.00 0.00 99 1011.6
20260904094518 56 199 1.0 1.0 0.00 0.00 0.00 99 1011.5
20260904093554 56 208 0.0 1.0 0.00 0.00 0.00 99 1011.5
20260904092530 57 221 1.0 1.0 0.00 0.00 0.00 99 1011.5
20260904091526 56 189 1.0 2.0 0.00 0.00 0.00 99 1011.3
20260904090523 56 251 2.0 2.0 0.00 0.00 0.00 99 1011.4
20260904085518 57 184 1.0 1.0 0.00 0.00 0.00 99 1011.2
20260904084534 57 218 1.0 1.0 0.00 0.00 0.00 99 1011.1
20260904083530 57 239 0.0 1.0 0.00 0.00 0.00 99 1011.3
20260904082526 57 230 0.0 1.0 0.00 0.00 0.00 99 1011.1
20260904081522 57 0.0 0.0 0.00 0.00 0.00 99 1011.3